Miscellaneous Local Product
Issued by NWS North Platte, NE

Home | Current Version | Previous Version | Text Only | Print | Product List | Glossary On
Versions: 1 2 3 4 5 6 7 8 9 10 11 12 13 14 15 16 17 18 19 20 21 22 23 24 25 26 27 28 29 30 31 32 33 34 35 36 37 38 39 40 41 42 43 44 45 46 47 48 49 50
000
AXUS43 KLBF 310210
MISLBF


WESTERN AND NORTH CENTRAL NEBRASKA HOURLY WEATHER ROUNDUP
NATIONAL WEATHER SERVICE NORTH PLATTE NE
800 PM CST FRI JAN 30 2015

***STATIONS NOT REPORTING VARIABLES SUCH AS SKY/WEATHER OR
PRESSURE ARE PROVIDED BY THE NEBRASKA DEPARTMENT OF
ROADS...RAWS...AND APRS NETWORKS...AND ARE NOT UNDER
NATIONAL WEATHER SERVICE QUALITY CONTROL***

...OBSERVATIONS IN AND NEAR THE EASTERN PANHANDLE OF NEBRASKA...

CITY           SKY/WX    TMP DP  RH WIND       PRES   REMARKS
PINE RIDGE     CLOUDY    31  23  72 NE5       30.13S WCI  26
CHADRON        CLOUDY    32  24  72 W3        30.13F
ALLIANCE       CLOUDY    32  27  81 N5        30.10F WCI  27
SIDNEY         CLOUDY    36  26  67 N6        30.08F WCI  31
WHITECLAY        N/A     29  22  74 CALM        N/A
CRESCENT LAKE    N/A     37  26  65 NE6         N/A  WCI  32
LISCO            N/A     36  24  61 CALM        N/A
LEWELLEN         N/A     43  31  62 S12         N/A
$$

...OBSERVATIONS IN NORTH CENTRAL NEBRASKA...

CITY           SKY/WX    TMP DP  RH WIND       PRES   REMARKS
VALENTINE      CLOUDY    38  27  64 CALM      30.14R
THEDFORD       CLOUDY    40  29  64 S8        30.15S WCI  35
AINSWORTH      CLOUDY    36  27  70 S9        30.14S WCI  29
O`NEILL        MOCLDY    38  28  66 S8        30.17S WCI  32
ORD            CLOUDY    39  25  57 S9        30.18F WCI  33
BROKEN BOW     CLOUDY    39  27  62 S6        30.17S WCI  35
BROWNLEE         N/A     40  28  63 S5          N/A
VALENTINE NWR    N/A     38  27  63 S6          N/A  WCI  33
SPRINGVIEW       N/A     38  27  63 CALM        N/A
HALSEY           N/A     40  26  56 S6          N/A
BREWSTER         N/A     36  27  69 CALM        N/A
ROSE             N/A     37  30  74 SE5         N/A  WCI  33
NEWPORT          N/A     37  29  72 S8          N/A  WCI  31
SARGENT          N/A     36  27  71 CALM        N/A
COMSTOCK         N/A     42  26  53 S6          N/A
EWING            N/A     37  29  73 S8          N/A  WCI  31
$$

...OBSERVATIONS IN SOUTHWEST NEBRASKA AND FAR NORTHEAST COLORADO...

CITY           SKY/WX    TMP DP  RH WIND       PRES   REMARKS
WRAY           CLOUDY    40  33  78 S10       30.10F WCI  33
IMPERIAL       CLOUDY    41  31  67 S15       30.13S
OGALLALA       CLOUDY    40  31  69 CALM      30.11S
NORTH PLATTE   CLOUDY    40  31  70 S10       30.16R WCI  33
MCCOOK         CLOUDY    41  33  73 S14       30.20R
LEXINGTON      CLOUDY    43  31  63 S13       30.20R
BRADY            N/A     40  31  71 CALM        N/A
GOTHENBURG       N/A     42  29  61 S9          N/A
CALLAWAY         N/A     39  32  76 S12         N/A  WCI  32
$$

...NORTH PLATTE AREA...

CITY           SKY/WX    TMP DP  RH WIND       PRES   REMARKS
AIRPORT        CLOUDY    40  31  70 S10       30.16R WCI  33
DOWNTOWN         N/A     40  31  70 SE3         N/A
$$

...SOME WEATHER OBSERVATIONS FROM AROUND THE REGION...

CITY           SKY/WX    TMP DP  RH WIND       PRES   REMARKS
DENVER         CLOUDY    41  27  57 NW8       30.08S
LARAMIE        CLOUDY    32  27  81 NE5       30.08F WCI  27
CHEYENNE       CLOUDY    36  24  62 N8        30.09F WCI  30
SCOTTSBLUFF    CLOUDY    35  29  78 N3        30.11F
RAPID CITY     MOCLDY    40  24  53 NW8       30.14S WCI  34
PIERRE         PTCLDY    30  22  72 N6        30.14R WCI  24
WINNER         FAIR      39  25  57 W3        30.14R
SIOUX FALLS    PTCLDY    34  28  79 S10       30.17F WCI  26
OMAHA          CLOUDY    34  25  69 S14       30.29F WCI  25
GRAND ISLAND   CLOUDY    41  26  55 S12       30.24S
KANSAS CITY    CLOUDY    31  20  63 S5        30.36F WCI  26
WICHITA        CLOUDY    41  25  53 S7        30.36S
HAYS           CLOUDY    37  27  65 S9        30.28F WCI  31
LIBERAL        CLOUDY    34  28  80 SE8       30.26F WCI  27
GOODLAND       CLOUDY    35  32  88 S16       30.14F WCI  25
$$



USA.gov is the U.S. government's official web portal to all federal, state and local government web resources and services.